DLH457 EDDF-KLAX

Flight info

Callsign DLH457
Flight time N/A
Altitude 34000
Route OBOKA2L OBOKA Z28 DIBIR DCT BUDIP DCT GISEB DCT RAVLO Y70 ABTOS N110 ERKIT DCT KUGUR DCT PIKIL/M082F360 DCT 57N020W 57N030W 57N040W 56N050W DCT JANJO/N0482F380 DCT DENSO DCT AGLOL DCT MERNU DCT XEXUL DCT BLUOX DCT RAP/N0472F400 J158 DDY J107 NORRA J100 LAS Q70 HAILO DCT KOPLE BOGET2
Aircraft B748/H-SADE2E3GHIJ3J4J5M1P2RWXYZ/LB1D1

Departure

Time N/A
Airport Frankfurt Main Airport (EDDF)

Arrival

Time 2026-05-04 17:54
Airport Los Angeles International Airport (KLAX)
Time Latitude Longitude Altitude Speed Heading
2026-05-04 09:37 57.09514 -33.92746 36330 ft 471 kts 272°
2026-05-04 09:37 57.09564 -33.98713 36317 ft 472 kts 271°
2026-05-04 09:38 57.09654 -34.10833 36326 ft 471 kts 272°
2026-05-04 09:38 57.09735 -34.22830 36325 ft 472 kts 271°
2026-05-04 09:39 57.09802 -34.34918 36329 ft 471 kts 271°
2026-05-04 09:39 57.09860 -34.46926 36330 ft 472 kts 271°
2026-05-04 09:40 57.09905 -34.59039 36326 ft 473 kts 271°
2026-05-04 09:40 57.09939 -34.71183 36327 ft 473 kts 271°
2026-05-04 09:42 57.09956 -35.19520 36331 ft 474 kts 271°
2026-05-04 09:43 57.09931 -35.31676 36328 ft 473 kts 271°
2026-05-04 09:43 57.09896 -35.43751 36326 ft 473 kts 271°
2026-05-04 09:44 57.09847 -35.55835 36325 ft 473 kts 271°
2026-05-04 09:46 57.09539 -36.04298 36325 ft 473 kts 270°
2026-05-04 09:46 57.09433 -36.16341 36325 ft 473 kts 270°
2026-05-04 09:47 57.09315 -36.28464 36325 ft 474 kts 270°
2026-05-04 09:49 57.08726 -36.76850 36321 ft 473 kts 270°
2026-05-04 09:51 57.08059 -37.19170 36318 ft 473 kts 269°
2026-05-04 09:51 57.07843 -37.31220 36315 ft 473 kts 269°
2026-05-04 09:52 57.07614 -37.43330 36307 ft 473 kts 269°
2026-05-04 09:52 57.07373 -37.55444 36316 ft 473 kts 269°
2026-05-04 09:53 57.07123 -37.67453 36318 ft 471 kts 269°
2026-05-04 09:53 57.06862 -37.79434 36310 ft 471 kts 269°
2026-05-04 09:54 57.06588 -37.91470 36307 ft 471 kts 268°
2026-05-04 09:54 57.06302 -38.03526 36307 ft 471 kts 268°
2026-05-04 09:55 57.06007 -38.15505 36300 ft 470 kts 268°
2026-05-04 09:55 57.05699 -38.27496 36298 ft 469 kts 268°
2026-05-04 09:56 57.05383 -38.39392 36297 ft 469 kts 268°
2026-05-04 09:56 57.05052 -38.51391 36298 ft 469 kts 268°
2026-05-04 09:57 57.04711 -38.63367 36304 ft 468 kts 268°
2026-05-04 09:57 57.04361 -38.75235 36293 ft 466 kts 268°
2026-05-04 09:58 57.04000 -38.87103 36293 ft 465 kts 267°
2026-05-04 09:58 57.03629 -38.98939 36298 ft 465 kts 267°
2026-05-04 10:00 57.02028 -39.46389 36300 ft 465 kts 267°
2026-05-04 10:04 56.98306 -40.28601 36277 ft 461 kts 265°
2026-05-04 10:04 56.97603 -40.40297 36280 ft 461 kts 265°
2026-05-04 10:05 56.96884 -40.51900 36279 ft 460 kts 264°
2026-05-04 10:05 56.96154 -40.63565 36277 ft 460 kts 264°
2026-05-04 10:06 56.95539 -40.73249 36272 ft 459 kts 264°
2026-05-04 10:06 56.94667 -40.86780 36274 ft 459 kts 264°
2026-05-04 10:08 56.92093 -41.25411 36260 ft 458 kts 264°
2026-05-04 10:08 56.91298 -41.36992 36259 ft 458 kts 264°
2026-05-04 10:09 56.90495 -41.48522 36258 ft 458 kts 264°
2026-05-04 10:09 56.89677 -41.60118 36246 ft 458 kts 264°
2026-05-04 10:10 56.88854 -41.71624 36246 ft 457 kts 264°
2026-05-04 10:10 56.88019 -41.83143 36254 ft 455 kts 264°
2026-05-04 10:11 56.87180 -41.94564 36251 ft 454 kts 264°
2026-05-04 10:11 56.86325 -42.06057 36245 ft 454 kts 263°
2026-05-04 10:12 56.85468 -42.17443 36242 ft 454 kts 263°
2026-05-04 10:12 56.84593 -42.28909 36245 ft 454 kts 263°
2026-05-04 10:13 56.83713 -42.40294 36229 ft 453 kts 264°
2026-05-04 10:13 56.82823 -42.51693 36230 ft 453 kts 263°
2026-05-04 10:14 56.81924 -42.63043 36225 ft 453 kts 263°
2026-05-04 10:16 56.78226 -43.08412 36222 ft 450 kts 264°
2026-05-04 10:16 56.77283 -43.19668 36217 ft 447 kts 264°
2026-05-04 10:17 56.76336 -43.30829 36203 ft 445 kts 264°
2026-05-04 10:19 56.72452 -43.75396 36195 ft 444 kts 264°
2026-05-04 10:19 56.71467 -43.86423 36196 ft 443 kts 264°
2026-05-04 10:20 56.70464 -43.97515 36188 ft 443 kts 264°
2026-05-04 10:20 56.69451 -44.08601 36183 ft 443 kts 264°
2026-05-04 10:21 56.68434 -44.19619 36183 ft 443 kts 264°
2026-05-04 10:21 56.67402 -44.30697 36181 ft 443 kts 264°
2026-05-04 10:22 56.65842 -44.47218 36182 ft 441 kts 264°
2026-05-04 10:23 56.64799 -44.58137 36170 ft 439 kts 263°
2026-05-04 10:25 56.60527 -45.01781 36168 ft 436 kts 263°
2026-05-04 10:25 56.59450 -45.12542 36151 ft 433 kts 262°
2026-05-04 10:26 56.58367 -45.23239 36150 ft 431 kts 262°
2026-05-04 10:26 56.57272 -45.33976 36141 ft 430 kts 262°
2026-05-04 10:27 56.56179 -45.44601 36353 ft 431 kts 262°
2026-05-04 10:27 56.55625 -45.49939 36589 ft 430 kts 262°
2026-05-04 10:27 56.55069 -45.55281 36814 ft 430 kts 262°
2026-05-04 10:27 56.54512 -45.60616 37004 ft 431 kts 262°
2026-05-04 10:28 56.53949 -45.65977 37198 ft 431 kts 262°
2026-05-04 10:28 56.53386 -45.71314 37390 ft 432 kts 261°
2026-05-04 10:28 56.52818 -45.76673 37587 ft 432 kts 261°
2026-05-04 10:28 56.52254 -45.81970 37768 ft 432 kts 261°
2026-05-04 10:29 56.51684 -45.87314 37942 ft 433 kts 261°
2026-05-04 10:29 56.51109 -45.92667 38133 ft 432 kts 261°
2026-05-04 10:29 56.50532 -45.98020 38130 ft 430 kts 261°
2026-05-04 10:30 56.49386 -46.08583 38116 ft 425 kts 261°
2026-05-04 10:30 56.48247 -46.19002 38106 ft 423 kts 260°
2026-05-04 10:31 56.47104 -46.29367 38103 ft 420 kts 260°
2026-05-04 10:32 56.43047 -46.65493 38088 ft 419 kts 259°
2026-05-04 10:33 56.41865 -46.75825 38080 ft 419 kts 259°
2026-05-04 10:33 56.40677 -46.86137 38082 ft 419 kts 259°
2026-05-04 10:34 56.39488 -46.96383 38074 ft 419 kts 259°
2026-05-04 10:34 56.38279 -47.06717 38061 ft 420 kts 258°
2026-05-04 10:35 56.37059 -47.17059 38078 ft 424 kts 258°
2026-05-04 10:35 56.35821 -47.27479 38058 ft 424 kts 258°
2026-05-04 10:36 56.34581 -47.37833 38071 ft 424 kts 258°
2026-05-04 10:36 56.33325 -47.48243 38060 ft 424 kts 258°
2026-05-04 10:37 56.32059 -47.58648 38059 ft 424 kts 258°
2026-05-04 10:37 56.30785 -47.69053 38054 ft 424 kts 258°
2026-05-04 10:39 56.26223 -48.05675 38041 ft 431 kts 257°
2026-05-04 10:40 56.24886 -48.16220 38042 ft 431 kts 257°
2026-05-04 10:40 56.23550 -48.26691 38016 ft 431 kts 257°
2026-05-04 10:41 56.22196 -48.37224 38016 ft 431 kts 257°
2026-05-04 10:41 56.20832 -48.47759 38009 ft 435 kts 257°
2026-05-04 10:42 56.19449 -48.58360 38001 ft 435 kts 257°
2026-05-04 10:42 56.18057 -48.68959 37993 ft 435 kts 256°
2026-05-04 10:43 56.16663 -48.79493 37981 ft 435 kts 256°
2026-05-04 10:45 56.10945 -49.21935 37985 ft 442 kts 255°
2026-05-04 10:45 56.09486 -49.32568 37972 ft 442 kts 255°
2026-05-04 10:46 56.08008 -49.43271 37972 ft 442 kts 255°
2026-05-04 10:46 56.06522 -49.53960 37962 ft 442 kts 255°
2026-05-04 10:47 56.05034 -49.64584 37958 ft 442 kts 255°
2026-05-04 10:47 56.03520 -49.75323 37960 ft 447 kts 254°
2026-05-04 10:49 55.95797 -50.17267 37931 ft 446 kts 246°
2026-05-04 10:50 55.93412 -50.27414 37935 ft 446 kts 245°
2026-05-04 10:52 55.83822 -50.66454 37910 ft 449 kts 244°
2026-05-04 10:52 55.81299 -50.76635 37903 ft 449 kts 244°
2026-05-04 10:54 55.71128 -51.17219 37867 ft 450 kts 244°
2026-05-04 10:56 55.60856 -51.57467 37852 ft 445 kts 243°
2026-05-04 10:57 55.58283 -51.67434 37849 ft 445 kts 242°
2026-05-04 10:57 55.55709 -51.77366 37834 ft 445 kts 242°
2026-05-04 10:58 55.53117 -51.87315 37830 ft 445 kts 242°
2026-05-04 10:58 55.50538 -51.97177 37832 ft 445 kts 242°
2026-05-04 10:59 55.47933 -52.07094 37820 ft 445 kts 242°
2026-05-04 10:59 55.45320 -52.16995 37821 ft 445 kts 242°
2026-05-04 11:00 55.42716 -52.26822 37810 ft 445 kts 242°
2026-05-04 11:02 55.32189 -52.66115 37788 ft 445 kts 241°
2026-05-04 11:05 55.12037 -53.39500 37756 ft 446 kts 240°
2026-05-04 11:06 55.09306 -53.49272 37745 ft 447 kts 239°
2026-05-04 11:06 55.06567 -53.59019 37753 ft 450 kts 239°
2026-05-04 11:10 54.86988 -54.27585 37710 ft 454 kts 238°
2026-05-04 11:12 54.75546 -54.66742 37672 ft 456 kts 238°
2026-05-04 11:12 54.72656 -54.76528 37678 ft 456 kts 238°
2026-05-04 11:13 54.69774 -54.86248 37667 ft 456 kts 238°
2026-05-04 11:13 54.66865 -54.96019 37674 ft 457 kts 237°
2026-05-04 11:14 54.66394 -54.97597 37673 ft 456 kts 237°
2026-05-04 11:16 54.52225 -55.44591 37655 ft 458 kts 237°
2026-05-04 11:16 54.49251 -55.54335 37650 ft 459 kts 237°
2026-05-04 11:17 54.46287 -55.64013 37642 ft 459 kts 237°
2026-05-04 11:19 54.34327 -56.02657 37609 ft 461 kts 236°
2026-05-04 11:19 54.31296 -56.12352 37640 ft 460 kts 236°
2026-05-04 11:20 54.28261 -56.22019 37626 ft 461 kts 236°
2026-05-04 11:20 54.25230 -56.31638 37626 ft 461 kts 236°
2026-05-04 11:22 54.12966 -56.70166 37624 ft 462 kts 236°
2026-05-04 11:23 54.09876 -56.79775 37612 ft 462 kts 236°
2026-05-04 11:24 54.02311 -57.09911 37631 ft 485 kts 263°
2026-05-04 11:25 54.02356 -57.15598 37621 ft 489 kts 267°
2026-05-04 11:25 54.02624 -57.27148 37628 ft 486 kts 262°
2026-05-04 11:27 54.00681 -57.78601 37625 ft 486 kts 261°
2026-05-04 11:28 54.00231 -57.90007 37628 ft 486 kts 261°
2026-05-04 11:28 53.99794 -58.01513 37625 ft 487 kts 261°
2026-05-04 11:29 53.99337 -58.12997 37632 ft 487 kts 261°
2026-05-04 11:29 53.98873 -58.24422 37633 ft 487 kts 261°
2026-05-04 11:33 53.95288 -59.05118 37604 ft 498 kts 261°
2026-05-04 11:33 53.94720 -59.16846 37616 ft 498 kts 261°
2026-05-04 11:34 53.94143 -59.28565 37612 ft 497 kts 261°
2026-05-04 11:34 53.93556 -59.40229 37612 ft 498 kts 261°
2026-05-04 11:35 53.92956 -59.51915 37606 ft 499 kts 261°
2026-05-04 11:35 53.92346 -59.63594 37608 ft 499 kts 260°
2026-05-04 11:36 53.91720 -59.75342 37605 ft 499 kts 260°
2026-05-04 11:36 53.91192 -59.85098 37600 ft 499 kts 260°
2026-05-04 11:37 53.90437 -59.98779 37607 ft 500 kts 260°
2026-05-04 11:37 53.89889 -60.08548 37595 ft 500 kts 260°
2026-05-04 11:38 53.89218 -60.20291 37603 ft 500 kts 260°
2026-05-04 11:38 53.88539 -60.31987 37592 ft 500 kts 260°
2026-05-04 11:39 53.87848 -60.43690 37584 ft 501 kts 260°
2026-05-04 11:41 53.85338 -60.84678 37606 ft 499 kts 259°
2026-05-04 11:41 53.84592 -60.96397 37615 ft 499 kts 259°
2026-05-04 11:42 53.83842 -61.08040 37608 ft 499 kts 259°
2026-05-04 11:42 53.83073 -61.19762 37599 ft 501 kts 259°
2026-05-04 11:43 53.82292 -61.31517 37616 ft 501 kts 259°
2026-05-04 11:43 53.81503 -61.43199 37612 ft 502 kts 259°
2026-05-04 11:44 53.80699 -61.54935 37617 ft 501 kts 259°
2026-05-04 11:44 53.79888 -61.66609 37617 ft 501 kts 259°
2026-05-04 11:45 53.79059 -61.78360 37621 ft 501 kts 259°
2026-05-04 11:45 53.78227 -61.90003 37613 ft 501 kts 259°
2026-05-04 11:46 53.77377 -62.01717 37615 ft 503 kts 259°
2026-05-04 11:46 53.76513 -62.13473 37620 ft 503 kts 259°
2026-05-04 11:47 53.75636 -62.25239 37620 ft 503 kts 259°
2026-05-04 11:47 53.74753 -62.36934 37620 ft 503 kts 259°
2026-05-04 11:48 53.73853 -62.48687 37622 ft 503 kts 259°
2026-05-04 11:48 53.72949 -62.60347 37628 ft 503 kts 258°
2026-05-04 11:49 53.72026 -62.72090 37624 ft 503 kts 258°
2026-05-04 11:49 53.71094 -62.83806 37622 ft 503 kts 258°
2026-05-04 11:50 53.70154 -62.95473 37619 ft 505 kts 258°
2026-05-04 11:50 53.69193 -63.07246 37627 ft 506 kts 258°
2026-05-04 11:51 53.68226 -63.18955 37623 ft 506 kts 258°
2026-05-04 11:51 53.67241 -63.30730 37635 ft 506 kts 258°
2026-05-04 11:52 53.66251 -63.42433 37637 ft 506 kts 258°
2026-05-04 11:52 53.65245 -63.54180 37647 ft 506 kts 258°
2026-05-04 11:53 53.64225 -63.65939 37671 ft 506 kts 258°
2026-05-04 11:53 53.63200 -63.77627 37646 ft 509 kts 258°
2026-05-04 11:55 53.59057 -64.24803 37684 ft 512 kts 265°
2026-05-04 11:56 53.59566 -64.36785 37667 ft 519 kts 275°
2026-05-04 11:56 53.60466 -64.48838 37671 ft 517 kts 270°
2026-05-04 11:57 53.60888 -64.60915 37673 ft 518 kts 271°
2026-05-04 11:57 53.61586 -64.73013 37678 ft 518 kts 271°
2026-05-04 11:58 53.62098 -64.85040 37687 ft 518 kts 271°
2026-05-04 11:58 53.62697 -64.97138 37668 ft 517 kts 271°
2026-05-04 11:59 53.63232 -65.09230 37672 ft 516 kts 270°
2026-05-04 11:59 53.63777 -65.21251 37692 ft 517 kts 271°
2026-05-04 12:00 53.64303 -65.33374 37675 ft 517 kts 270°
2026-05-04 12:00 53.64819 -65.45456 37690 ft 515 kts 270°
2026-05-04 12:01 53.65318 -65.57428 37686 ft 511 kts 270°
2026-05-04 12:02 53.66963 -65.99247 37704 ft 509 kts 270°
2026-05-04 12:03 53.67402 -66.11090 37698 ft 507 kts 270°
2026-05-04 12:03 53.67830 -66.22973 37701 ft 507 kts 270°
2026-05-04 12:04 53.68249 -66.34879 37718 ft 508 kts 270°
2026-05-04 12:04 53.68654 -66.46747 37705 ft 508 kts 269°
2026-05-04 12:05 53.69045 -66.58571 37723 ft 505 kts 270°
2026-05-04 12:05 53.69423 -66.70332 37725 ft 504 kts 269°
2026-05-04 12:06 53.69791 -66.82157 37722 ft 504 kts 269°
2026-05-04 12:06 53.70148 -66.94008 37722 ft 504 kts 269°
2026-05-04 12:07 53.70491 -67.05773 37717 ft 504 kts 269°
2026-05-04 12:07 53.70825 -67.17604 37722 ft 502 kts 269°
2026-05-04 12:08 53.71144 -67.29344 37723 ft 502 kts 269°
2026-05-04 12:08 53.71453 -67.41138 37722 ft 502 kts 269°
2026-05-04 12:09 53.71749 -67.52898 37720 ft 502 kts 269°
2026-05-04 12:09 53.72036 -67.64702 37728 ft 502 kts 269°
2026-05-04 12:10 53.72308 -67.76431 37726 ft 503 kts 269°
2026-05-04 12:10 53.72571 -67.88236 37724 ft 503 kts 269°
2026-05-04 12:11 53.72821 -67.99991 37724 ft 503 kts 269°
2026-05-04 12:11 53.73062 -68.11826 37730 ft 503 kts 269°
2026-05-04 12:12 53.73290 -68.23663 37734 ft 504 kts 269°
2026-05-04 12:12 53.73507 -68.35504 37735 ft 503 kts 269°
2026-05-04 12:14 53.74256 -68.82715 37731 ft 502 kts 268°
2026-05-04 12:15 53.74413 -68.94439 37739 ft 502 kts 268°
2026-05-04 12:15 53.74561 -69.06262 37739 ft 502 kts 268°
2026-05-04 12:16 53.74695 -69.18081 37742 ft 502 kts 268°
2026-05-04 12:16 53.74819 -69.29823 37758 ft 501 kts 268°
2026-05-04 12:17 53.74930 -69.41625 37759 ft 501 kts 268°
2026-05-04 12:17 53.75030 -69.53356 37761 ft 500 kts 268°
2026-05-04 12:18 53.75119 -69.65134 37765 ft 500 kts 268°
2026-05-04 12:18 53.75195 -69.76825 37763 ft 500 kts 268°
2026-05-04 12:19 53.75261 -69.88592 37760 ft 500 kts 267°
2026-05-04 12:19 53.75315 -70.00324 37761 ft 500 kts 267°
2026-05-04 12:20 53.75358 -70.12101 37762 ft 500 kts 267°
2026-05-04 12:20 53.75388 -70.23815 37768 ft 500 kts 267°
2026-05-04 12:21 53.75408 -70.35567 37776 ft 500 kts 267°
2026-05-04 12:21 53.75416 -70.47253 37770 ft 499 kts 267°
2026-05-04 12:22 53.75412 -70.59022 37771 ft 499 kts 267°
2026-05-04 12:22 53.75397 -70.70755 37776 ft 499 kts 266°
2026-05-04 12:23 53.75371 -70.82423 37774 ft 499 kts 266°
2026-05-04 12:23 53.75333 -70.94159 37776 ft 499 kts 266°
2026-05-04 12:24 53.75284 -71.05883 37779 ft 498 kts 266°
2026-05-04 12:24 53.75235 -71.15621 37776 ft 498 kts 266°
2026-05-04 12:25 53.75152 -71.29264 37770 ft 498 kts 266°
2026-05-04 12:25 53.75083 -71.39073 37767 ft 498 kts 266°
2026-05-04 12:26 53.74991 -71.50728 37773 ft 498 kts 266°
2026-05-04 12:26 53.74886 -71.62448 37759 ft 498 kts 266°
2026-05-04 12:27 53.74771 -71.74094 37770 ft 498 kts 266°
2026-05-04 12:27 53.74644 -71.85780 37766 ft 497 kts 266°
2026-05-04 12:28 53.74506 -71.97487 37752 ft 498 kts 266°
2026-05-04 12:28 53.74357 -72.09129 37753 ft 497 kts 266°
2026-05-04 12:29 53.74196 -72.20823 37758 ft 497 kts 266°
2026-05-04 12:29 53.74025 -72.32439 37757 ft 497 kts 266°
2026-05-04 12:30 53.73841 -72.44139 37752 ft 497 kts 266°
2026-05-04 12:30 53.73647 -72.55778 37767 ft 497 kts 266°
2026-05-04 12:31 53.73440 -72.67485 37750 ft 497 kts 266°
2026-05-04 12:31 53.73225 -72.79074 37751 ft 496 kts 266°
2026-05-04 12:32 53.72877 -72.96585 37747 ft 496 kts 265°
2026-05-04 12:33 53.72632 -73.08198 37746 ft 496 kts 265°
2026-05-04 12:33 53.72376 -73.19857 37737 ft 496 kts 265°
2026-05-04 12:34 53.72108 -73.31508 37737 ft 496 kts 265°
2026-05-04 12:34 53.71830 -73.43094 37737 ft 496 kts 265°
2026-05-04 12:35 53.71539 -73.54765 37730 ft 496 kts 265°
2026-05-04 12:35 53.71238 -73.66382 37731 ft 496 kts 265°
2026-05-04 12:36 53.70354 -73.77879 37732 ft 492 kts 256°
2026-05-04 12:36 53.68922 -73.89126 37734 ft 493 kts 257°
2026-05-04 12:37 53.67682 -74.00530 37730 ft 493 kts 257°
2026-05-04 12:37 53.66306 -74.11886 37726 ft 493 kts 257°
2026-05-04 12:38 53.65001 -74.23157 37734 ft 494 kts 257°
2026-05-04 12:38 53.63640 -74.34481 37722 ft 491 kts 256°
2026-05-04 12:39 53.62296 -74.45716 37708 ft 490 kts 257°
2026-05-04 12:39 53.60930 -74.56978 37706 ft 490 kts 256°
2026-05-04 12:40 53.59564 -74.68173 37703 ft 490 kts 256°
2026-05-04 12:40 53.58177 -74.79431 37699 ft 490 kts 256°
2026-05-04 12:41 53.56782 -74.90669 37710 ft 489 kts 256°
2026-05-04 12:41 53.55387 -75.01816 37704 ft 489 kts 256°
2026-05-04 12:42 53.53972 -75.13029 37703 ft 489 kts 256°
2026-05-04 12:42 53.52547 -75.24232 37699 ft 489 kts 256°
2026-05-04 12:43 53.51123 -75.35341 37695 ft 489 kts 256°
2026-05-04 12:43 53.49678 -75.46519 37684 ft 488 kts 256°
2026-05-04 12:44 53.48224 -75.57681 37687 ft 489 kts 256°
2026-05-04 12:44 53.46759 -75.68839 37679 ft 489 kts 256°
2026-05-04 12:45 53.45291 -75.79932 37679 ft 489 kts 256°
2026-05-04 12:45 53.43805 -75.91082 37672 ft 489 kts 256°
2026-05-04 12:46 53.42316 -76.02160 37667 ft 488 kts 256°
2026-05-04 12:46 53.40817 -76.13241 37660 ft 486 kts 255°
2026-05-04 12:47 53.39307 -76.24304 37659 ft 487 kts 255°
2026-05-04 12:47 53.37797 -76.35300 37652 ft 487 kts 255°
2026-05-04 12:48 53.36265 -76.46363 37645 ft 486 kts 255°
2026-05-04 12:48 53.34734 -76.57347 37638 ft 486 kts 255°
2026-05-04 12:49 53.33181 -76.68401 37640 ft 486 kts 255°
2026-05-04 12:49 53.31621 -76.79433 37636 ft 487 kts 255°
2026-05-04 12:50 53.30056 -76.90403 37632 ft 487 kts 256°
2026-05-04 12:50 53.28475 -77.01425 37621 ft 488 kts 255°
2026-05-04 12:51 53.26884 -77.12428 37622 ft 485 kts 255°
2026-05-04 12:51 53.25298 -77.23322 37611 ft 484 kts 255°
2026-05-04 12:52 53.23694 -77.34259 37615 ft 484 kts 255°
2026-05-04 12:52 53.22076 -77.45221 37605 ft 485 kts 255°
2026-05-04 12:53 53.20460 -77.56089 37602 ft 485 kts 255°
2026-05-04 12:53 53.18820 -77.67043 37596 ft 485 kts 255°
2026-05-04 12:54 53.17188 -77.77866 37585 ft 484 kts 255°
2026-05-04 12:54 53.15539 -77.88745 37583 ft 483 kts 255°
2026-05-04 12:55 53.13877 -77.99619 37585 ft 482 kts 255°
2026-05-04 12:55 53.12218 -78.10411 37570 ft 482 kts 254°
2026-05-04 12:56 53.10537 -78.21266 37571 ft 483 kts 254°
2026-05-04 12:56 53.08849 -78.32096 37576 ft 484 kts 255°
2026-05-04 12:57 53.07162 -78.42846 37560 ft 484 kts 255°
2026-05-04 12:57 53.05453 -78.53671 37561 ft 483 kts 255°
2026-05-04 12:58 53.03733 -78.64495 37542 ft 483 kts 254°
2026-05-04 12:58 53.02012 -78.75248 37546 ft 483 kts 254°
2026-05-04 12:59 52.99973 -78.85874 37524 ft 481 kts 244°
2026-05-04 12:59 52.96802 -78.95662 37530 ft 481 kts 240°
2026-05-04 13:00 52.93768 -79.05503 37523 ft 481 kts 244°
2026-05-04 13:00 52.90744 -79.15400 37521 ft 480 kts 241°
2026-05-04 13:01 52.87683 -79.25176 37513 ft 480 kts 243°
2026-05-04 13:01 52.84640 -79.35036 37515 ft 480 kts 242°
2026-05-04 13:02 52.81570 -79.44804 37521 ft 481 kts 242°
2026-05-04 13:02 52.78497 -79.54639 37501 ft 481 kts 242°
2026-05-04 13:03 52.75420 -79.64384 37508 ft 480 kts 242°
2026-05-04 13:03 52.72331 -79.74165 37501 ft 480 kts 242°
2026-05-04 13:04 52.69235 -79.83908 37504 ft 479 kts 242°
2026-05-04 13:04 52.66152 -79.93583 37490 ft 479 kts 242°
2026-05-04 13:05 52.63037 -80.03312 37493 ft 479 kts 242°
2026-05-04 13:05 52.59921 -80.13012 37491 ft 479 kts 242°
2026-05-04 13:06 52.56807 -80.22666 37478 ft 478 kts 242°
2026-05-04 13:06 52.53674 -80.32340 37475 ft 479 kts 242°
2026-05-04 13:07 52.50552 -80.41940 37470 ft 479 kts 242°
2026-05-04 13:07 52.47397 -80.51605 37480 ft 480 kts 242°
2026-05-04 13:08 52.44235 -80.61254 37483 ft 480 kts 242°
2026-05-04 13:08 52.41088 -80.70821 37477 ft 480 kts 242°
2026-05-04 13:09 52.37908 -80.80449 37468 ft 479 kts 242°
2026-05-04 13:09 52.34741 -80.90001 37463 ft 479 kts 241°
2026-05-04 13:10 52.31551 -80.99584 37461 ft 479 kts 241°
2026-05-04 13:10 52.28366 -81.09118 37457 ft 479 kts 241°
2026-05-04 13:11 52.25151 -81.18701 37459 ft 480 kts 241°
2026-05-04 13:11 52.21934 -81.28257 37464 ft 480 kts 241°
2026-05-04 13:12 52.19252 -81.36193 37441 ft 479 kts 241°
2026-05-04 13:12 52.15510 -81.47226 37445 ft 477 kts 241°
2026-05-04 13:13 52.12829 -81.55098 37446 ft 477 kts 241°
2026-05-04 13:13 52.09596 -81.64563 37450 ft 477 kts 241°
2026-05-04 13:14 52.06391 -81.73907 37453 ft 476 kts 241°
2026-05-04 13:14 52.03157 -81.83300 37448 ft 476 kts 240°
2026-05-04 13:15 51.99920 -81.92668 37453 ft 475 kts 241°
2026-05-04 13:15 51.96686 -82.01993 37444 ft 473 kts 241°
2026-05-04 13:16 51.93448 -82.11295 37440 ft 473 kts 240°
2026-05-04 13:16 51.90222 -82.20527 37431 ft 473 kts 240°
2026-05-04 13:17 51.86977 -82.29782 37437 ft 473 kts 240°
2026-05-04 13:17 51.83716 -82.39044 37436 ft 473 kts 240°
2026-05-04 13:18 51.80452 -82.48284 37417 ft 473 kts 240°
2026-05-04 13:18 51.77203 -82.57448 37418 ft 472 kts 240°
2026-05-04 13:19 51.73930 -82.66644 37407 ft 472 kts 240°
2026-05-04 13:19 51.70650 -82.75828 37419 ft 472 kts 240°
2026-05-04 13:20 51.67382 -82.84945 37410 ft 472 kts 240°
2026-05-04 13:20 51.64087 -82.94105 37411 ft 472 kts 240°
2026-05-04 13:21 51.60783 -83.03255 37411 ft 472 kts 240°
2026-05-04 13:21 51.57480 -83.12371 37392 ft 469 kts 240°
2026-05-04 13:22 51.54205 -83.21375 37390 ft 468 kts 240°
2026-05-04 13:22 51.50914 -83.30394 37388 ft 466 kts 240°
2026-05-04 13:23 51.47624 -83.39377 37387 ft 466 kts 240°
2026-05-04 13:23 51.44347 -83.48293 37373 ft 466 kts 240°
2026-05-04 13:24 51.41041 -83.57256 37373 ft 466 kts 240°
2026-05-04 13:24 51.37758 -83.66126 37364 ft 464 kts 240°
2026-05-04 13:25 51.32805 -83.79453 37353 ft 464 kts 239°
2026-05-04 13:25 51.29491 -83.88329 37353 ft 464 kts 239°
2026-05-04 13:26 51.26173 -83.97185 37337 ft 464 kts 239°
2026-05-04 13:26 51.22865 -84.05983 37337 ft 464 kts 239°
2026-05-04 13:27 51.19530 -84.14824 37326 ft 464 kts 239°
2026-05-04 13:27 51.16189 -84.23652 37312 ft 464 kts 239°
2026-05-04 13:28 51.12862 -84.32410 37307 ft 464 kts 239°
2026-05-04 13:28 51.09507 -84.41214 37307 ft 464 kts 239°
2026-05-04 13:29 51.06147 -84.50000 37305 ft 465 kts 239°
2026-05-04 13:29 51.02777 -84.58783 37299 ft 465 kts 239°
2026-05-04 13:30 50.99419 -84.67503 37292 ft 464 kts 239°
2026-05-04 13:30 50.96038 -84.76254 37281 ft 465 kts 239°
2026-05-04 13:31 50.92649 -84.84996 37284 ft 465 kts 239°
2026-05-04 13:31 50.89267 -84.93691 37274 ft 465 kts 239°
2026-05-04 13:32 50.85859 -85.02423 37275 ft 465 kts 239°
2026-05-04 13:32 50.82465 -85.11090 37276 ft 465 kts 239°
2026-05-04 13:33 50.79042 -85.19803 37272 ft 465 kts 239°
2026-05-04 13:33 50.75619 -85.28484 37255 ft 464 kts 239°
2026-05-04 13:34 50.72226 -85.37066 37263 ft 463 kts 239°
2026-05-04 13:34 50.68805 -85.45683 37259 ft 463 kts 238°
2026-05-04 13:35 50.63683 -85.58538 37246 ft 463 kts 238°
2026-05-04 13:36 50.60251 -85.67116 37250 ft 463 kts 238°
2026-05-04 13:36 50.56806 -85.75695 37217 ft 463 kts 239°
2026-05-04 13:37 50.53435 -85.84066 37237 ft 461 kts 238°
2026-05-04 13:37 50.49993 -85.92586 37228 ft 461 kts 238°
2026-05-04 13:38 50.46568 -86.01032 37232 ft 461 kts 238°
2026-05-04 13:38 50.43110 -86.09536 37235 ft 461 kts 238°
2026-05-04 13:39 50.39649 -86.18019 37224 ft 461 kts 238°
2026-05-04 13:39 50.36180 -86.26492 37226 ft 462 kts 238°
2026-05-04 13:40 50.32733 -86.34886 37218 ft 461 kts 238°
2026-05-04 13:40 50.29255 -86.43328 37219 ft 461 kts 238°
2026-05-04 13:41 50.25767 -86.51767 37213 ft 461 kts 238°
2026-05-04 13:41 50.22294 -86.60142 37213 ft 461 kts 238°
2026-05-04 13:42 50.17318 -86.72991 37213 ft 460 kts 247°
2026-05-04 13:42 50.15042 -86.82319 37190 ft 461 kts 249°
2026-05-04 13:43 50.12542 -86.91519 37206 ft 460 kts 247°
2026-05-04 13:43 50.10118 -87.00743 37214 ft 460 kts 249°
2026-05-04 13:44 50.07677 -87.09893 37211 ft 460 kts 248°
2026-05-04 13:44 50.05208 -87.19111 37211 ft 460 kts 248°
2026-05-04 13:45 50.02745 -87.28298 37212 ft 461 kts 248°
2026-05-04 13:45 50.00271 -87.37461 37210 ft 462 kts 248°
2026-05-04 13:46 49.97781 -87.46672 37205 ft 462 kts 248°
2026-05-04 13:46 49.95291 -87.55826 37206 ft 462 kts 248°
2026-05-04 13:47 49.92786 -87.65013 37194 ft 461 kts 248°
2026-05-04 13:47 49.90274 -87.74181 37199 ft 461 kts 248°
2026-05-04 13:48 49.87744 -87.83385 37198 ft 463 kts 248°
2026-05-04 13:48 49.85222 -87.92519 37196 ft 462 kts 248°
2026-05-04 13:49 49.82680 -88.01693 37200 ft 462 kts 248°
2026-05-04 13:49 49.80147 -88.10798 37197 ft 462 kts 248°
2026-05-04 13:50 49.77591 -88.19952 37211 ft 462 kts 248°
2026-05-04 13:50 49.75035 -88.29067 37206 ft 463 kts 248°
2026-05-04 13:51 49.72461 -88.38214 37190 ft 463 kts 248°
2026-05-04 13:51 49.69878 -88.47357 37191 ft 463 kts 248°
2026-05-04 13:52 49.66010 -88.60983 37191 ft 463 kts 248°
2026-05-04 13:53 49.63426 -88.70041 37198 ft 462 kts 248°
2026-05-04 13:53 49.60822 -88.79135 37203 ft 462 kts 248°
2026-05-04 13:54 49.56924 -88.92687 37210 ft 463 kts 248°
2026-05-04 13:55 49.52984 -89.06305 37205 ft 463 kts 247°
2026-05-04 13:55 49.49060 -89.19792 37208 ft 459 kts 248°
2026-05-04 13:56 49.46440 -89.28755 37208 ft 458 kts 248°
2026-05-04 13:57 49.42517 -89.42112 37210 ft 458 kts 247°
2026-05-04 13:58 49.37251 -89.59930 37217 ft 459 kts 247°
2026-05-04 13:58 49.33718 -89.71811 37225 ft 459 kts 247°
2026-05-04 13:59 49.31054 -89.80733 37224 ft 459 kts 247°
2026-05-04 14:00 49.27067 -89.94022 37221 ft 458 kts 247°
2026-05-04 14:00 49.23067 -90.07282 37227 ft 458 kts 247°
2026-05-04 14:01 49.20384 -90.16140 37229 ft 458 kts 247°
2026-05-04 14:02 49.16362 -90.29355 37237 ft 458 kts 247°
2026-05-04 14:02 49.13673 -90.38151 37246 ft 458 kts 247°
2026-05-04 14:03 49.10962 -90.46986 37245 ft 458 kts 247°
2026-05-04 14:03 49.08253 -90.55785 37255 ft 458 kts 247°
2026-05-04 14:04 49.04200 -90.68889 37266 ft 457 kts 247°
2026-05-04 14:04 49.01475 -90.77661 37264 ft 457 kts 247°
2026-05-04 14:05 48.97396 -90.90734 37273 ft 458 kts 247°
2026-05-04 14:06 48.94645 -90.99509 37269 ft 459 kts 246°
2026-05-04 14:06 48.91887 -91.08279 37285 ft 458 kts 246°
2026-05-04 14:07 48.89146 -91.16965 37292 ft 458 kts 246°
2026-05-04 14:07 48.86378 -91.25706 37296 ft 458 kts 246°
2026-05-04 14:08 48.83651 -91.34285 37284 ft 459 kts 246°
2026-05-04 14:08 48.80862 -91.43034 37299 ft 460 kts 246°
2026-05-04 14:09 48.76683 -91.56078 37295 ft 460 kts 246°
2026-05-04 14:10 48.72487 -91.69112 37315 ft 460 kts 246°
2026-05-04 14:10 48.69675 -91.77808 37322 ft 459 kts 246°
2026-05-04 14:11 48.66860 -91.86486 37315 ft 459 kts 246°
2026-05-04 14:11 48.62621 -91.99494 37329 ft 458 kts 246°
2026-05-04 14:12 48.59795 -92.08134 37341 ft 458 kts 246°
2026-05-04 14:13 48.55559 -92.21018 37341 ft 458 kts 246°
2026-05-04 14:13 48.52718 -92.29630 37355 ft 458 kts 246°
2026-05-04 14:14 48.49872 -92.38224 37356 ft 458 kts 246°
2026-05-04 14:14 48.45593 -92.51093 37365 ft 458 kts 246°
2026-05-04 14:15 48.39891 -92.68140 37383 ft 455 kts 246°
2026-05-04 14:16 48.35594 -92.80913 37388 ft 455 kts 246°
2026-05-04 14:17 48.31303 -92.93603 37404 ft 455 kts 246°
2026-05-04 14:18 48.26980 -93.06326 37406 ft 454 kts 246°
2026-05-04 14:19 48.21219 -93.23185 37418 ft 454 kts 246°
2026-05-04 14:19 48.18338 -93.31575 37428 ft 454 kts 246°
2026-05-04 14:20 48.15435 -93.39999 37441 ft 454 kts 246°
2026-05-04 14:20 48.12547 -93.48354 37447 ft 453 kts 246°
2026-05-04 14:21 48.08190 -93.60910 37467 ft 453 kts 246°
2026-05-04 14:21 48.05274 -93.69279 37466 ft 453 kts 246°
2026-05-04 14:22 48.02372 -93.77582 37482 ft 453 kts 246°
2026-05-04 14:22 47.99446 -93.85924 37478 ft 453 kts 246°
2026-05-04 14:23 47.95058 -93.98389 37503 ft 453 kts 246°
2026-05-04 14:24 47.92115 -94.06714 37502 ft 453 kts 246°
2026-05-04 14:24 47.89183 -94.14984 37500 ft 453 kts 246°
2026-05-04 14:25 47.86224 -94.23301 37512 ft 453 kts 246°
2026-05-04 14:25 47.81805 -94.35675 37513 ft 452 kts 246°
2026-05-04 14:26 47.78847 -94.43926 37530 ft 452 kts 246°
2026-05-04 14:26 47.75950 -94.51981 37531 ft 452 kts 246°
2026-05-04 14:27 47.72977 -94.60220 37553 ft 452 kts 245°
2026-05-04 14:27 47.70017 -94.68399 37565 ft 450 kts 245°
2026-05-04 14:28 47.67049 -94.76574 37583 ft 447 kts 245°
2026-05-04 14:28 47.64092 -94.84697 37581 ft 447 kts 245°
2026-05-04 14:29 47.58232 -95.00718 37585 ft 447 kts 245°
2026-05-04 14:30 47.55159 -95.08680 37591 ft 447 kts 244°
2026-05-04 14:31 47.50490 -95.20665 37591 ft 447 kts 244°
2026-05-04 14:32 47.44267 -95.36516 37587 ft 445 kts 244°
2026-05-04 14:32 47.41152 -95.44414 37582 ft 444 kts 244°
2026-05-04 14:33 47.38032 -95.52305 37587 ft 444 kts 244°
2026-05-04 14:33 47.34933 -95.60117 37591 ft 444 kts 244°
2026-05-04 14:34 47.31801 -95.67991 37606 ft 444 kts 244°
2026-05-04 14:34 47.28672 -95.75835 37602 ft 444 kts 244°
2026-05-04 14:35 47.25549 -95.83641 37605 ft 445 kts 244°
2026-05-04 14:35 47.22398 -95.91491 37623 ft 443 kts 244°
2026-05-04 14:36 47.19261 -95.99288 37633 ft 442 kts 244°
2026-05-04 14:36 47.16139 -96.07024 37630 ft 441 kts 244°
2026-05-04 14:37 47.12994 -96.14795 37640 ft 442 kts 244°
2026-05-04 14:37 47.09847 -96.22548 37627 ft 440 kts 244°
2026-05-04 14:38 47.06719 -96.30236 37637 ft 441 kts 244°
2026-05-04 14:38 47.03570 -96.37949 37639 ft 441 kts 244°
2026-05-04 14:39 47.00414 -96.45660 37647 ft 441 kts 244°
2026-05-04 14:39 46.97251 -96.53364 37649 ft 441 kts 244°
2026-05-04 14:40 46.92531 -96.64824 37687 ft 439 kts 244°
2026-05-04 14:40 46.89366 -96.72482 37678 ft 439 kts 244°
2026-05-04 14:41 46.86193 -96.80136 37678 ft 439 kts 244°
2026-05-04 14:42 46.79856 -96.95358 37682 ft 439 kts 244°
2026-05-04 14:42 46.76682 -97.02953 37678 ft 438 kts 244°
2026-05-04 14:43 46.73501 -97.10541 37674 ft 438 kts 244°
2026-05-04 14:43 46.70334 -97.18078 37679 ft 438 kts 244°
2026-05-04 14:44 46.67142 -97.25651 37683 ft 438 kts 244°
2026-05-04 14:44 46.63947 -97.33212 37699 ft 437 kts 244°
2026-05-04 14:45 46.61300 -97.39459 37695 ft 434 kts 244°
2026-05-04 14:45 46.58122 -97.46945 37683 ft 434 kts 244°
2026-05-04 14:46 46.54956 -97.54377 37687 ft 434 kts 244°
2026-05-04 14:46 46.51762 -97.61857 37690 ft 434 kts 244°
2026-05-04 14:47 46.48583 -97.69284 37694 ft 435 kts 244°
2026-05-04 14:47 46.45396 -97.76707 37696 ft 435 kts 244°
2026-05-04 14:48 46.42182 -97.84172 37698 ft 435 kts 244°
2026-05-04 14:48 46.38987 -97.91576 37715 ft 435 kts 244°
2026-05-04 14:49 46.35764 -97.99022 37709 ft 435 kts 244°
2026-05-04 14:49 46.32563 -98.06398 37713 ft 434 kts 244°
2026-05-04 14:50 46.29417 -98.13632 37710 ft 434 kts 244°
2026-05-04 14:50 46.26211 -98.20976 37720 ft 433 kts 244°
2026-05-04 14:51 46.22993 -98.28339 37719 ft 432 kts 244°
2026-05-04 14:51 46.19772 -98.35683 37733 ft 432 kts 244°
2026-05-04 14:52 46.16567 -98.42973 37732 ft 431 kts 244°
2026-05-04 14:52 46.13340 -98.50294 37746 ft 431 kts 244°
2026-05-04 14:53 46.10115 -98.57590 37747 ft 431 kts 244°
2026-05-04 14:53 46.06900 -98.64846 37751 ft 432 kts 244°
2026-05-04 14:54 46.03657 -98.72146 37747 ft 432 kts 244°
2026-05-04 14:54 46.00445 -98.79355 37752 ft 430 kts 244°
2026-05-04 14:55 45.97203 -98.86616 37758 ft 430 kts 244°
2026-05-04 14:55 45.93980 -98.93814 37756 ft 430 kts 244°
2026-05-04 14:56 45.90736 -99.01042 37760 ft 430 kts 244°
2026-05-04 14:56 45.87486 -99.08263 37760 ft 430 kts 244°
2026-05-04 14:57 45.84253 -99.15429 37754 ft 430 kts 243°
2026-05-04 14:57 45.80998 -99.22624 37760 ft 430 kts 243°
2026-05-04 14:58 45.77739 -99.29809 37762 ft 428 kts 243°
2026-05-04 14:58 45.74494 -99.36946 37768 ft 426 kts 243°
2026-05-04 14:59 45.71269 -99.44025 37765 ft 426 kts 243°
2026-05-04 15:00 45.66397 -99.54678 37764 ft 427 kts 243°
2026-05-04 15:00 45.63139 -99.61780 37770 ft 427 kts 243°
2026-05-04 15:01 45.58262 -99.72380 37774 ft 427 kts 243°
2026-05-04 15:01 45.54992 -99.79466 37737 ft 427 kts 243°
2026-05-04 15:02 45.51729 -99.86517 37781 ft 426 kts 243°
2026-05-04 15:02 45.48453 -99.93579 37771 ft 426 kts 243°
2026-05-04 15:03 45.45197 -100.00581 37777 ft 426 kts 243°
2026-05-04 15:03 45.41914 -100.07623 37776 ft 426 kts 243°
2026-05-04 15:04 45.38697 -100.14507 37795 ft 426 kts 243°
2026-05-04 15:04 45.35422 -100.21498 37791 ft 427 kts 242°
2026-05-04 15:05 45.32124 -100.28521 37792 ft 427 kts 242°
2026-05-04 15:05 45.28824 -100.35530 37793 ft 426 kts 242°
2026-05-04 15:06 45.25520 -100.42532 37797 ft 426 kts 242°
2026-05-04 15:07 45.20579 -100.52970 37801 ft 426 kts 242°
2026-05-04 15:07 45.17329 -100.59815 37802 ft 426 kts 242°
2026-05-04 15:08 45.14030 -100.66746 37815 ft 426 kts 242°
2026-05-04 15:08 45.10704 -100.73717 37812 ft 426 kts 242°
2026-05-04 15:09 45.07393 -100.80638 37810 ft 426 kts 242°
2026-05-04 15:09 45.04051 -100.87610 37815 ft 428 kts 242°
2026-05-04 15:10 44.99054 -100.97999 37825 ft 427 kts 242°
2026-05-04 15:11 44.94026 -101.08416 37828 ft 428 kts 242°
2026-05-04 15:11 44.90665 -101.15360 37830 ft 428 kts 242°
2026-05-04 15:12 44.87319 -101.22255 37836 ft 428 kts 242°
2026-05-04 15:12 44.83946 -101.29187 37838 ft 428 kts 242°
2026-05-04 15:13 44.80587 -101.36078 37837 ft 431 kts 242°
2026-05-04 15:13 44.77190 -101.43026 37840 ft 430 kts 241°
2026-05-04 15:14 44.73787 -101.49973 37836 ft 432 kts 241°
2026-05-04 15:14 44.70361 -101.56944 37835 ft 432 kts 241°
2026-05-04 15:15 44.66937 -101.63902 38192 ft 434 kts 241°
2026-05-04 15:15 44.65213 -101.67397 38474 ft 435 kts 241°
2026-05-04 15:15 44.63510 -101.70843 38695 ft 436 kts 241°
2026-05-04 15:16 44.60031 -101.77875 39111 ft 439 kts 241°
2026-05-04 15:16 44.58284 -101.81401 39323 ft 440 kts 240°
2026-05-04 15:16 44.54773 -101.88471 39688 ft 443 kts 240°
2026-05-04 15:17 44.53003 -101.92028 39846 ft 443 kts 240°
2026-05-04 15:17 44.47736 -102.02588 39850 ft 440 kts 240°
2026-05-04 15:18 44.44212 -102.09633 39850 ft 440 kts 240°
2026-05-04 15:19 44.38935 -102.20151 39850 ft 442 kts 240°
2026-05-04 15:19 44.33624 -102.30697 39855 ft 442 kts 240°
2026-05-04 15:20 44.30076 -102.37723 39868 ft 442 kts 240°
2026-05-04 15:20 44.26542 -102.44702 39869 ft 443 kts 240°
2026-05-04 15:21 44.22968 -102.51742 39872 ft 444 kts 240°
2026-05-04 15:22 44.17616 -102.62257 39877 ft 444 kts 240°
2026-05-04 15:22 44.12261 -102.72736 39887 ft 444 kts 240°
2026-05-04 15:23 44.08669 -102.79747 39897 ft 444 kts 239°
2026-05-04 15:23 44.05090 -102.86713 39901 ft 445 kts 239°
2026-05-04 15:24 43.97914 -103.00736 39906 ft 442 kts 245°
2026-05-04 15:25 43.95740 -103.08371 39919 ft 434 kts 257°
2026-05-04 15:26 43.92736 -103.20295 39877 ft 436 kts 253°
2026-05-04 15:26 43.89734 -103.32178 39877 ft 436 kts 254°
2026-05-04 15:27 43.86691 -103.43958 39890 ft 436 kts 254°
2026-05-04 15:28 43.83626 -103.55815 39899 ft 438 kts 254°
2026-05-04 15:29 43.80537 -103.67719 39900 ft 437 kts 254°
2026-05-04 15:30 43.73292 -103.95381 39853 ft 438 kts 253°
2026-05-04 15:31 43.70165 -104.07224 39819 ft 438 kts 253°
2026-05-04 15:32 43.64921 -104.26956 39829 ft 439 kts 253°
2026-05-04 15:34 43.59635 -104.46678 39834 ft 438 kts 253°
2026-05-04 15:34 43.56802 -104.57184 39848 ft 438 kts 253°
2026-05-04 15:35 43.53597 -104.69016 39856 ft 439 kts 253°
2026-05-04 15:36 43.50386 -104.80812 39855 ft 439 kts 252°
2026-05-04 15:36 43.48247 -104.88636 39848 ft 439 kts 252°
2026-05-04 15:37 43.46089 -104.96510 39863 ft 440 kts 252°
2026-05-04 15:37 43.43919 -105.04395 39861 ft 440 kts 252°
2026-05-04 15:38 43.41745 -105.12273 39864 ft 440 kts 252°
2026-05-04 15:38 43.39580 -105.20093 39863 ft 438 kts 252°
2026-05-04 15:39 43.37399 -105.27945 39877 ft 438 kts 252°
2026-05-04 15:40 43.34124 -105.39689 39881 ft 440 kts 251°
2026-05-04 15:40 43.31927 -105.47541 39881 ft 440 kts 251°
2026-05-04 15:41 43.29738 -105.55335 39884 ft 440 kts 251°
2026-05-04 15:41 43.27521 -105.63202 39884 ft 440 kts 251°
2026-05-04 15:42 43.25311 -105.71025 39881 ft 441 kts 251°
2026-05-04 15:42 43.23080 -105.78892 39876 ft 441 kts 251°
2026-05-04 15:43 43.20848 -105.86742 39877 ft 441 kts 251°
2026-05-04 15:43 43.18621 -105.94547 39875 ft 441 kts 251°
2026-05-04 15:44 43.16370 -106.02413 39872 ft 442 kts 251°
2026-05-04 15:44 43.14126 -106.10230 39870 ft 442 kts 251°
2026-05-04 15:45 43.11872 -106.18061 39898 ft 442 kts 251°
2026-05-04 15:45 43.09617 -106.25866 39923 ft 442 kts 250°
2026-05-04 15:46 43.06458 -106.33045 39953 ft 449 kts 236°
2026-05-04 15:46 43.02662 -106.39774 39984 ft 449 kts 238°
2026-05-04 15:47 42.99102 -106.46809 40007 ft 449 kts 238°
2026-05-04 15:47 42.95402 -106.53689 40007 ft 449 kts 238°
2026-05-04 15:48 42.91794 -106.60581 40004 ft 449 kts 238°
2026-05-04 15:48 42.86327 -106.70866 39846 ft 449 kts 238°
2026-05-04 15:49 42.82659 -106.77782 39853 ft 450 kts 238°
2026-05-04 15:49 42.79002 -106.84636 39851 ft 450 kts 238°
2026-05-04 15:50 42.75322 -106.91531 39851 ft 450 kts 238°
2026-05-04 15:50 42.71639 -106.98409 39852 ft 450 kts 238°
2026-05-04 15:51 42.67958 -107.05272 39823 ft 449 kts 238°
2026-05-04 15:51 42.64256 -107.12156 39839 ft 450 kts 237°
2026-05-04 15:52 42.60554 -107.19024 39823 ft 450 kts 237°
2026-05-04 15:52 42.56846 -107.25887 39814 ft 451 kts 237°
2026-05-04 15:53 42.53156 -107.32702 39814 ft 450 kts 237°
2026-05-04 15:53 42.49444 -107.39542 39801 ft 450 kts 237°
2026-05-04 15:54 42.45738 -107.46353 39796 ft 446 kts 237°
2026-05-04 15:54 42.42079 -107.53066 39773 ft 444 kts 237°
2026-05-04 15:55 42.38404 -107.59793 39777 ft 444 kts 237°
2026-05-04 15:55 42.34745 -107.66475 39757 ft 443 kts 237°
2026-05-04 15:56 42.31066 -107.73177 39762 ft 444 kts 237°
2026-05-04 15:56 42.27389 -107.79861 39756 ft 442 kts 237°
2026-05-04 15:57 42.23726 -107.86507 39758 ft 441 kts 237°
2026-05-04 15:57 42.20057 -107.93148 39764 ft 440 kts 237°
2026-05-04 15:58 42.16397 -107.99758 39760 ft 439 kts 237°
2026-05-04 15:58 42.12742 -108.06344 39764 ft 439 kts 237°
2026-05-04 15:59 42.09108 -108.12878 39761 ft 439 kts 237°
2026-05-04 15:59 42.05437 -108.19466 39761 ft 439 kts 237°
2026-05-04 16:00 42.01768 -108.26033 39766 ft 439 kts 237°
2026-05-04 16:00 41.98092 -108.32600 39768 ft 439 kts 237°
2026-05-04 16:01 41.94429 -108.39131 39768 ft 439 kts 237°
2026-05-04 16:01 41.90743 -108.45686 39774 ft 437 kts 237°
2026-05-04 16:02 41.87105 -108.52143 39772 ft 436 kts 237°
2026-05-04 16:03 41.81603 -108.61883 39779 ft 436 kts 237°
2026-05-04 16:03 41.77925 -108.68376 39780 ft 436 kts 237°
2026-05-04 16:04 41.74248 -108.74853 39785 ft 436 kts 237°
2026-05-04 16:04 41.70590 -108.81284 39892 ft 436 kts 236°
2026-05-04 16:04 41.68751 -108.84511 39917 ft 436 kts 236°
2026-05-04 16:05 41.65066 -108.90970 39963 ft 436 kts 236°
2026-05-04 16:06 41.59581 -109.00552 39984 ft 432 kts 236°
2026-05-04 16:07 41.51067 -109.12073 39989 ft 436 kts 230°
2026-05-04 16:07 41.44612 -109.20588 39809 ft 435 kts 229°
2026-05-04 16:08 41.42456 -109.23433 39813 ft 435 kts 230°
2026-05-04 16:09 41.31719 -109.37542 39805 ft 431 kts 230°
2026-05-04 16:10 41.23150 -109.48752 39814 ft 432 kts 230°
2026-05-04 16:11 41.14605 -109.59886 39808 ft 431 kts 230°
2026-05-04 16:12 41.01726 -109.76589 39819 ft 432 kts 229°
2026-05-04 16:13 40.93142 -109.87667 39832 ft 432 kts 229°
2026-05-04 16:14 40.84517 -109.98756 39825 ft 432 kts 229°
2026-05-04 16:16 40.73802 -110.12474 39858 ft 428 kts 229°
2026-05-04 16:17 40.63120 -110.26083 39863 ft 427 kts 229°
2026-05-04 16:18 40.54612 -110.36875 39862 ft 422 kts 230°
2026-05-04 16:19 40.43996 -110.50289 39853 ft 422 kts 229°
2026-05-04 16:20 40.33395 -110.63622 39861 ft 423 kts 229°
2026-05-04 16:22 40.22801 -110.76886 39846 ft 421 kts 229°
2026-05-04 16:23 40.10764 -110.91882 39835 ft 423 kts 229°
2026-05-04 16:25 39.98036 -111.07655 39845 ft 422 kts 229°
2026-05-04 16:26 39.83115 -111.26041 39843 ft 422 kts 229°
2026-05-04 16:28 39.72377 -111.39202 39846 ft 425 kts 228°
2026-05-04 16:29 39.57317 -111.57553 39834 ft 425 kts 228°
2026-05-04 16:31 39.46598 -111.70543 39836 ft 425 kts 228°
2026-05-04 16:32 39.33638 -111.86184 39824 ft 425 kts 227°
2026-05-04 16:33 39.24985 -111.96569 39813 ft 423 kts 227°
2026-05-04 16:34 39.18472 -112.04373 39834 ft 424 kts 227°
2026-05-04 16:35 39.05614 -112.19706 39910 ft 421 kts 227°
2026-05-04 16:36 38.99176 -112.27357 39947 ft 421 kts 227°
2026-05-04 16:37 38.92694 -112.35035 39936 ft 421 kts 227°
2026-05-04 16:38 38.84154 -112.45121 39928 ft 415 kts 227°
2026-05-04 16:39 38.77809 -112.52593 39813 ft 413 kts 227°
2026-05-04 16:39 38.73566 -112.57580 39816 ft 413 kts 227°
2026-05-04 16:40 38.65098 -112.67506 39811 ft 413 kts 227°
2026-05-04 16:41 38.54636 -112.79722 39885 ft 401 kts 228°
2026-05-04 16:43 38.44284 -112.91765 39952 ft 403 kts 227°
2026-05-04 16:43 38.38074 -112.98963 39947 ft 403 kts 227°
2026-05-04 16:45 38.23951 -113.11160 39896 ft 410 kts 218°
2026-05-04 16:46 38.11921 -113.20906 39815 ft 411 kts 218°
2026-05-04 16:47 38.02378 -113.28612 39797 ft 403 kts 219°
2026-05-04 16:48 37.92959 -113.36196 39841 ft 400 kts 219°
2026-05-04 16:49 37.83522 -113.43744 39837 ft 401 kts 219°
2026-05-04 16:50 37.74197 -113.51174 39812 ft 394 kts 219°
2026-05-04 16:51 37.67231 -113.56708 39818 ft 394 kts 219°
2026-05-04 16:52 37.57965 -113.64049 39818 ft 394 kts 219°
2026-05-04 16:53 37.51071 -113.69495 39833 ft 388 kts 219°
2026-05-04 16:54 37.41959 -113.76670 39832 ft 388 kts 219°
2026-05-04 16:55 37.28231 -113.87462 39822 ft 385 kts 219°
2026-05-04 16:56 37.16919 -113.96307 39819 ft 383 kts 219°
2026-05-04 16:57 37.10150 -114.01588 39811 ft 383 kts 219°
2026-05-04 16:58 37.01137 -114.08598 39807 ft 379 kts 219°
2026-05-04 17:00 36.87735 -114.18990 39804 ft 378 kts 219°
2026-05-04 17:01 36.76590 -114.27687 39819 ft 372 kts 224°
2026-05-04 17:02 36.69383 -114.36736 39826 ft 368 kts 230°
2026-05-04 17:03 36.64128 -114.43653 39822 ft 367 kts 230°
2026-05-04 17:03 36.58851 -114.50576 39821 ft 366 kts 230°
2026-05-04 17:04 36.51842 -114.59755 39827 ft 367 kts 230°
2026-05-04 17:05 36.44795 -114.68955 39833 ft 370 kts 230°
2026-05-04 17:06 36.39484 -114.75869 39838 ft 369 kts 230°
2026-05-04 17:07 36.35349 -114.81243 39850 ft 370 kts 230°
2026-05-04 17:07 36.30553 -114.87335 39849 ft 370 kts 230°
2026-05-04 17:08 36.25186 -114.94175 39857 ft 370 kts 230°
2026-05-04 17:09 36.21576 -114.98757 39862 ft 371 kts 230°
2026-05-04 17:09 36.17970 -115.03332 39857 ft 370 kts 229°
2026-05-04 17:10 36.08961 -115.14731 39903 ft 371 kts 231°
2026-05-04 17:11 36.06385 -115.18928 39916 ft 369 kts 238°
2026-05-04 17:12 36.02106 -115.26835 39916 ft 369 kts 238°
2026-05-04 17:13 35.95001 -115.39955 39918 ft 368 kts 237°
2026-05-04 17:14 35.89300 -115.50447 39923 ft 370 kts 237°
2026-05-04 17:15 35.85017 -115.58298 39928 ft 366 kts 237°
2026-05-04 17:16 35.79343 -115.68685 39938 ft 365 kts 236°
2026-05-04 17:17 35.73651 -115.79070 39932 ft 366 kts 237°
2026-05-04 17:18 35.67953 -115.89432 39920 ft 366 kts 237°
2026-05-04 17:19 35.62317 -115.99902 39920 ft 367 kts 238°
2026-05-04 17:20 35.56933 -116.10504 39912 ft 367 kts 238°
2026-05-04 17:20 35.52868 -116.18495 39901 ft 368 kts 238°
2026-05-04 17:21 35.47462 -116.29107 39899 ft 370 kts 237°
2026-05-04 17:22 35.44725 -116.34453 39922 ft 369 kts 237°
2026-05-04 17:23 35.39266 -116.45115 39941 ft 369 kts 237°
2026-05-04 17:24 35.35153 -116.53123 39369 ft 372 kts 237°
2026-05-04 17:24 35.31097 -116.61005 37990 ft 358 kts 238°
2026-05-04 17:25 35.29774 -116.63571 37540 ft 352 kts 237°
2026-05-04 17:25 35.27210 -116.68539 36648 ft 341 kts 237°
2026-05-04 17:26 35.24699 -116.73399 35795 ft 333 kts 237°
2026-05-04 17:26 35.21022 -116.80501 34526 ft 327 kts 237°
2026-05-04 17:27 35.18620 -116.85132 33666 ft 322 kts 236°
2026-05-04 17:27 35.16232 -116.89730 32828 ft 318 kts 236°
2026-05-04 17:28 35.13864 -116.94286 32019 ft 316 kts 236°
2026-05-04 17:29 35.10332 -117.01067 30808 ft 316 kts 236°
2026-05-04 17:29 35.06785 -117.07866 29554 ft 317 kts 237°
2026-05-04 17:30 35.03227 -117.14672 28309 ft 316 kts 237°
2026-05-04 17:31 35.00865 -117.19182 27497 ft 315 kts 237°
2026-05-04 17:31 34.97332 -117.25919 26272 ft 313 kts 237°
2026-05-04 17:32 34.95002 -117.30355 25462 ft 315 kts 237°
2026-05-04 17:33 34.91120 -117.37732 24138 ft 365 kts 237°
2026-05-04 17:33 34.89745 -117.40342 23665 ft 377 kts 237°
2026-05-04 17:34 34.85357 -117.48657 22058 ft 386 kts 237°
2026-05-04 17:34 34.83902 -117.51408 21536 ft 384 kts 237°
2026-05-04 17:35 34.79598 -117.59539 19941 ft 379 kts 237°
2026-05-04 17:35 34.76746 -117.64916 18889 ft 375 kts 237°
2026-05-04 17:35 34.75333 -117.67578 18355 ft 374 kts 237°
2026-05-04 17:36 34.73939 -117.70200 17795 ft 373 kts 237°
2026-05-04 17:36 34.72523 -117.72862 17251 ft 374 kts 237°
2026-05-04 17:36 34.71113 -117.75511 16714 ft 373 kts 237°
2026-05-04 17:36 34.69703 -117.78159 16146 ft 372 kts 237°
2026-05-04 17:37 34.68309 -117.80775 15540 ft 372 kts 237°
2026-05-04 17:37 34.66899 -117.83418 15029 ft 372 kts 237°
2026-05-04 17:37 34.65496 -117.86075 14472 ft 373 kts 240°
2026-05-04 17:37 34.64393 -117.88913 13905 ft 372 kts 246°
2026-05-04 17:38 34.63391 -117.91779 13328 ft 370 kts 247°
2026-05-04 17:38 34.62381 -117.94653 12743 ft 369 kts 246°
2026-05-04 17:38 34.61357 -117.97502 12170 ft 365 kts 246°
2026-05-04 17:38 34.60342 -118.00314 11597 ft 358 kts 246°
2026-05-04 17:39 34.58565 -118.05291 10615 ft 291 kts 246°
2026-05-04 17:39 34.57801 -118.07421 10462 ft 260 kts 246°
2026-05-04 17:39 34.57109 -118.09344 10358 ft 241 kts 246°
2026-05-04 17:40 34.56435 -118.11219 10271 ft 249 kts 246°
2026-05-04 17:40 34.55704 -118.13252 10210 ft 274 kts 246°
2026-05-04 17:40 34.54931 -118.15404 9844 ft 280 kts 246°
2026-05-04 17:40 34.54154 -118.17562 9395 ft 279 kts 246°
2026-05-04 17:41 34.53376 -118.19723 8981 ft 280 kts 246°
2026-05-04 17:41 34.52606 -118.21863 8573 ft 281 kts 246°
2026-05-04 17:41 34.51766 -118.24009 8145 ft 281 kts 237°
2026-05-04 17:41 34.50364 -118.25552 7947 ft 267 kts 208°
2026-05-04 17:42 34.48581 -118.26204 7944 ft 273 kts 193°
2026-05-04 17:42 34.46728 -118.26434 7946 ft 262 kts 184°
2026-05-04 17:42 34.44877 -118.26431 7978 ft 268 kts 181°
2026-05-04 17:42 34.43011 -118.26388 7978 ft 267 kts 182°
2026-05-04 17:43 34.41153 -118.26329 7983 ft 265 kts 182°
2026-05-04 17:43 34.39306 -118.26264 7991 ft 267 kts 181°
2026-05-04 17:43 34.37455 -118.26216 7990 ft 269 kts 182°
2026-05-04 17:43 34.35601 -118.26162 8006 ft 266 kts 182°
2026-05-04 17:44 34.33746 -118.26104 7988 ft 267 kts 181°
2026-05-04 17:44 34.31882 -118.26008 7990 ft 269 kts 177°
2026-05-04 17:44 34.30035 -118.25661 7883 ft 273 kts 174°
2026-05-04 17:44 34.28171 -118.25207 7447 ft 270 kts 172°
2026-05-04 17:45 34.26346 -118.24736 7060 ft 265 kts 172°
2026-05-04 17:45 34.24608 -118.24299 6971 ft 242 kts 171°
2026-05-04 17:45 34.23005 -118.23891 6996 ft 236 kts 172°
2026-05-04 17:45 34.21421 -118.23481 6994 ft 231 kts 171°
2026-05-04 17:46 34.19880 -118.23089 6785 ft 228 kts 171°
2026-05-04 17:46 34.18319 -118.22706 6267 ft 229 kts 172°
2026-05-04 17:46 34.16767 -118.22318 5998 ft 225 kts 172°
2026-05-04 17:46 34.15213 -118.21926 5695 ft 228 kts 172°
2026-05-04 17:47 34.13705 -118.21559 5315 ft 224 kts 171°
2026-05-04 17:47 34.12144 -118.21198 4927 ft 223 kts 171°
2026-05-04 17:47 34.10624 -118.20862 4535 ft 219 kts 171°
2026-05-04 17:47 34.09121 -118.20525 4154 ft 218 kts 172°
2026-05-04 17:48 34.07633 -118.20189 3819 ft 217 kts 171°
2026-05-04 17:48 34.06164 -118.19870 3471 ft 218 kts 171°
2026-05-04 17:48 34.04655 -118.19555 3118 ft 222 kts 171°
2026-05-04 17:48 34.03169 -118.19225 3009 ft 214 kts 172°
2026-05-04 17:49 34.01764 -118.18912 2971 ft 193 kts 179°
2026-05-04 17:49 34.00512 -118.19254 2988 ft 184 kts 205°
2026-05-04 17:49 33.99358 -118.19889 2985 ft 183 kts 207°
2026-05-04 17:49 33.98226 -118.20590 2999 ft 178 kts 214°
2026-05-04 17:50 33.97289 -118.21560 2990 ft 178 kts 232°
2026-05-04 17:50 33.96916 -118.22895 2918 ft 173 kts 267°
2026-05-04 17:50 33.96822 -118.24305 2736 ft 166 kts 262°
2026-05-04 17:50 33.96698 -118.25692 2511 ft 169 kts 262°
2026-05-04 17:51 33.96556 -118.27093 2272 ft 165 kts 262°
2026-05-04 17:51 33.96423 -118.28416 2047 ft 154 kts 261°
2026-05-04 17:51 33.96295 -118.29660 1834 ft 146 kts 262°
2026-05-04 17:51 33.96178 -118.30821 1645 ft 134 kts 261°
2026-05-04 17:52 33.96065 -118.31901 1419 ft 128 kts 261°
2026-05-04 17:52 33.95963 -118.32938 1237 ft 123 kts 261°
2026-05-04 17:52 33.95843 -118.33997 1110 ft 129 kts 260°
2026-05-04 17:52 33.95725 -118.35068 932 ft 130 kts 261°
2026-05-04 17:53 33.95616 -118.36123 796 ft 127 kts 263°
2026-05-04 17:53 33.95509 -118.37167 664 ft 125 kts 261°
2026-05-04 17:53 33.95414 -118.38191 490 ft 120 kts 262°
2026-05-04 17:53 33.95310 -118.39176 313 ft 116 kts 259°
2026-05-04 17:54 33.95209 -118.40123 142 ft 112 kts 262°
2026-05-04 17:54 33.95122 -118.40999 103 ft 95 kts 264°
2026-05-04 17:54 33.95065 -118.41608 105 ft 54 kts 263°
2026-05-04 17:54 33.95028 -118.41955 103 ft 32 kts 260°
2026-05-04 17:55 33.94961 -118.42176 107 ft 18 kts 231°
2026-05-04 17:55 33.94874 -118.42258 109 ft 15 kts 205°
2026-05-04 17:55 33.94785 -118.42280 107 ft 13 kts 176°
2026-05-04 17:55 33.94686 -118.42268 104 ft 16 kts 173°
2026-05-04 17:56 33.94616 -118.42235 105 ft 4 kts 128°
2026-05-04 17:56 33.94608 -118.42190 106 ft 7 kts 81°
2026-05-04 17:56 33.94621 -118.42078 103 ft 20 kts 83°
2026-05-04 17:56 33.94635 -118.41876 103 ft 26 kts 85°
2026-05-04 17:57 33.94654 -118.41657 103 ft 27 kts 84°
2026-05-04 17:57 33.94676 -118.41428 105 ft 28 kts 83°
2026-05-04 17:57 33.94655 -118.41283 105 ft 6 kts 144°
2026-05-04 17:57 33.94604 -118.41271 104 ft 12 kts 173°
2026-05-04 17:58 33.94509 -118.41256 104 ft 14 kts 172°
2026-05-04 17:58 33.94408 -118.41241 103 ft 15 kts 173°
2026-05-04 17:58 33.94300 -118.41226 104 ft 16 kts 174°
2026-05-04 17:58 33.94191 -118.41212 104 ft 9 kts 166°
2026-05-04 17:59 33.94177 -118.41201 105 ft 1 kts 133°
2026-05-04 17:59 33.94174 -118.41183 105 ft 5 kts 98°
2026-05-04 17:59 33.94178 -118.41092 104 ft 0 kts 84°